星链-5165 (STARLINK-5165 )

导读 | 星芒AI

STARLINK-5165 是 SpaceX Starlink 项目中的一颗低轨通信卫星,属于第 5 批发射的星链卫星群。该卫星运行在约 550 公里的近地轨道,旨在为全球提供高速互联网服务。它采用先进的相控阵天线和激光通信技术,支持低延迟、高带宽的数据传输。STARLINK-5165 由 SpaceX 自主研发和发射,是其构建全球卫星互联网网络的重要组成部分。

基本信息
目录编号:
54081
目录名称:
STARLINK-5165
国际标识:
2022-136AG
轨道中心:
EARTH
卫星名称:
星链-5165
卫星全名:
星链-5165 (STARLINK-5165 )
卫星状态:
已陨落 最后检测时间 2025-10-14
发射日期:
2022-10-20 UTC
国别 :
美国 (US)
星等 :
--
轨道信息
数据来源 国际轨道数据
星历时间: 2025-10-14T14:44:09+0800
轨道信息已过期68天
半长轴: 6527.697km
偏心率: 0.0005598
轨道倾角: 53.194°
近地点辐角 261.057°
升交点赤经 248.248°
平近点角 98.985°
近地点: 145.907km
远地点: 153.217km
周期: 87.478分钟
每日圈数: 16.461249
详细信息
固有亮度:
5
最大亮度:
2.5
卫星平台:
Starlink v1.5
覆盖范围:
全球
运营商:
太空探索技术公司
运营商所在国:
美国
制造商(研发单位):
太空探索技术公司
制造商所在国:
美国
使用方式:
暂无
卫星简介
星链(Starlink)计划是由太空探索技术公司(SpaceX)提出的一个巨型低轨卫星互联网星座项目,计划在2019年至2024年间在太空搭建由约1.2万颗卫星组成的“星链”网络,其中1584颗将部署在地球上空550千米处的近地轨道,并从2020年开始工作。该卫星仍在工作。